Location: Mound City (historical)
(34.0564°N, 117.2656°W)
Time: 02:25:23
(UTC+00:00)

Cosmos 1544 Rocket - Pass Details

Date: 08 September 2024
Orbit: 601 x 625 km, 82.5° (Epoch: 03 October)

Event Time Altitude Azimuth Distance (km) Brightness Sun altitude
Exits shadow 12:05:26 31° 281° (W) 1,070 4.3 -17.4°
Maximum altitude 12:05:28 31° 281° (W) 1,070 4.3 -17.4°
Drops below altitude 10° 12:09:20 10° 344° (NNW) 1,965 6.2 -16.7°
Sets 12:11:47 0° 355° (N) 2,878 7.2 -16.2°
